Weather History for KRKS - March, 2013

Change the Weather History Date:

Friday, March 8, 2013

  Actual Average Record
Temperature  
Mean Temperature 38 °F 31 °F  
Max Temperature 48 °F 41 °F 58 °F (1986)
Min Temperature 28 °F 21 °F -1 °F (1964)
Degree Days  
Heating Degree Days 27 34  
Month to date heating degree days 240 282  
Since 1 July heating degree days 5721 6134  
Cooling Degree Days 0 0  
Month to date cooling degree days 0 0  
Year to date cooling degree days 0 0  
Moisture  
Dew Point 26 °F    
Average Humidity 64    
Maximum Humidity 89    
Minimum Humidity 38    
Precipitation  
Precipitation T in 0.02 in 0.33 in (1986)
Month to date precipitation T 0.14  
Year to date precipitation T 1.07  
Sea Level Pressure  
Sea Level Pressure 29.77 in    
Wind  
Wind Speed 4 mph (NNE)    
Max Wind Speed 16 mph    
Max Gust Speed 20 mph    
Visibility 8 miles    
Events Fog , Snow    
T = Trace of Precipitation, MM = Missing Value Source: NWS Daily Summary

Daily Weather History Graph

Daily Weather History Graph

Search for Another Location

Airport or City:

Trip Planner

Search our weather history database for the weather conditions in past years. The results will help you decide how hot, cold, wet, or windy it might be!

Date:

Astronomy

Mar. 08, 2013 Rise Set
Actual Time 6:39 AM MST 6:15 PM MST
Civil Twilight 6:11 AM MST 6:42 PM MST
Nautical Twilight 5:39 AM MST 7:15 PM MST
Astronomical Twilight 5:07 AM MST 7:47 PM MST
Moon 4:27 AM MST (3/8) 3:12 PM MST (3/8)
Length of Visible Light 12h 31m
Length of Day
11h 36m
Waning Crescent, 11% of the Moon is Illuminated
Mar 8
Waning Crescent
Mar 11
New
Mar 19
First Quarter
Mar 27
Full
Apr 2
Last Quarter

Hourly Weather History & Observations

Time (MST) Temp. Windchill Dew Point Humidity Pressure Visibility Wind Dir Wind Speed Gust Speed Precip Events Conditions
12:54 AM 32.0 °F 28.7 °F 21.9 °F 66% 29.88 in 10.0 mi SSE 3.5 mph - N/A   Clear
1:54 AM 30.9 °F - 21.9 °F 69% 29.86 in 10.0 mi Calm Calm - N/A   Clear
2:54 AM 28.9 °F 22.8 °F 21.0 °F 72% 29.83 in 10.0 mi WSW 5.8 mph - N/A   Clear
3:54 AM 28.0 °F 21.7 °F 21.9 °F 78% 29.82 in 10.0 mi SW 5.8 mph - N/A   Clear
4:54 AM 28.9 °F 23.9 °F 21.9 °F 75% 29.82 in 10.0 mi SSW 4.6 mph - N/A   Clear
5:54 AM 28.9 °F - 21.9 °F 75% 29.85 in 10.0 mi Calm Calm - N/A   Clear
6:54 AM 28.9 °F - 21.9 °F 75% 29.88 in 10.0 mi Calm Calm - N/A   Clear
7:54 AM 30.0 °F - 23.0 °F 75% 29.88 in 10.0 mi Calm Calm - N/A   Clear
8:54 AM 32.0 °F - 23.0 °F 69% 29.87 in 10.0 mi Calm Calm - N/A   Clear
9:54 AM 35.1 °F - 25.0 °F 67% 29.85 in 10.0 mi Calm Calm - N/A   Clear
10:54 AM 37.9 °F 34.4 °F 25.0 °F 60% 29.81 in 10.0 mi North 4.6 mph - N/A   Clear
11:54 AM 44.1 °F 41.5 °F 24.1 °F 45% 29.78 in 10.0 mi NNW 4.6 mph - N/A   Clear
12:54 PM 46.9 °F - 24.1 °F 41% 29.73 in 10.0 mi Variable 4.6 mph - N/A   Scattered Clouds
1:54 PM 46.0 °F - 23.0 °F 40% 29.70 in 10.0 mi Calm Calm - N/A   Overcast
2:54 PM 46.9 °F - 24.1 °F 41% 29.70 in 10.0 mi WNW 4.6 mph - N/A   Overcast
3:54 PM 46.0 °F 41.0 °F 24.1 °F 42% 29.70 in 10.0 mi SSW 10.4 mph - N/A   Overcast
4:54 PM 41.0 °F 33.5 °F 27.0 °F 57% 29.73 in 10.0 mi NW 13.8 mph - N/A   Overcast
5:07 PM 39.2 °F 35.0 °F 28.4 °F 65% 29.73 in 10.0 mi NW 5.8 mph - N/A   Overcast
5:54 PM 39.9 °F 37.8 °F 28.0 °F 63% 29.73 in 10.0 mi NNE 3.5 mph - N/A   Overcast
6:54 PM 39.0 °F 36.8 °F 27.0 °F 62% 29.73 in 10.0 mi NE 3.5 mph - N/A   Clear
7:54 PM 37.9 °F - 26.1 °F 62% 29.72 in 10.0 mi Calm Calm - N/A   Overcast
8:54 PM 37.9 °F - 27.0 °F 65% 29.71 in 10.0 mi Calm Calm - N/A   Overcast
9:54 PM 37.0 °F 30.4 °F 27.0 °F 67% 29.72 in 10.0 mi ESE 9.2 mph - N/A   Overcast
10:54 PM 34.0 °F 26.6 °F 30.9 °F 89% 29.71 in 3.0 mi East 9.2 mph - 0.00 in Snow Light Snow
11:01 PM 33.8 °F 27.0 °F 30.2 °F 87% 29.73 in 1.8 mi East 8.1 mph - 0.00 in Snow Light Snow
11:14 PM 33.8 °F 27.7 °F 30.2 °F 87% 29.72 in 0.5 mi ENE 6.9 mph - 0.00 in Fog , Snow Light Snow
11:16 PM 33.8 °F 27.0 °F 30.2 °F 87% 29.72 in 0.2 mi ENE 8.1 mph - 0.00 in Fog , Snow Light Snow
11:25 PM 33.8 °F 27.7 °F 30.2 °F 87% 29.72 in 0.2 mi NE 6.9 mph - 0.00 in Fog , Snow Snow
11:35 PM 32.0 °F 25.6 °F 30.2 °F 93% 29.72 in 0.2 mi NE 6.9 mph - 0.00 in Fog , Snow Snow
11:54 PM 32.0 °F 23.6 °F 30.9 °F 96% 29.68 in 0.2 mi NE 10.4 mph - 0.00 in Fog , Snow Snow